KF0EZB Weather Reports


Display with metric or nautical units.
time (UTC)temp
F
wind
direction
speed
MPH
gust
MPH
rain 1hr
in
rain 24hr
in
rain mn
in
humidity
%
barometer
mb
20260903135229 83 177 3.0 9.0 0.00 0.00 0.00 59 1011.7
20260903134727 83 137 4.0 8.0 0.00 0.00 0.00 59 1011.4
20260903134224 82 253 5.0 10.0 0.00 0.00 0.00 60 1011.9
20260903133721 82 188 4.0 7.0 0.00 0.00 0.00 60 1012.0
20260903133218 82 177 3.0 9.0 0.00 0.00 0.00 61 1011.7
20260903132717 81 167 3.0 6.0 0.00 0.00 0.00 62 1011.7
20260903132212 81 266 3.0 7.0 0.00 0.00 0.00 62 1011.9
20260903131707 80 170 3.0 7.0 0.00 0.00 0.00 63 1011.7
20260903131201 80 211 3.0 7.0 0.00 0.00 0.00 63 1011.7
20260903130656 80 218 2.0 9.0 0.00 0.00 0.00 64 1011.9
20260903130150 79 191 2.0 5.0 0.00 0.00 0.00 64 1011.7
20260903125649 79 223 4.0 9.0 0.00 0.00 0.00 65 1011.7
20260903125144 78 218 2.0 3.0 0.00 0.00 0.00 65 1011.7
20260903124643 78 183 2.0 6.0 0.00 0.00 0.00 65 1012.0
20260903124137 78 189 2.0 6.0 0.00 0.00 0.00 65 1011.6
20260903123632 78 138 1.0 5.0 0.00 0.00 0.00 65 1012.0
20260903123131 78 243 5.0 7.0 0.00 0.00 0.00 66 1011.9
20260903122631 78 166 2.0 5.0 0.00 0.00 0.00 66 1011.5
20260903122131 78 220 3.0 7.0 0.00 0.00 0.00 66 1012.0
20260903121630 78 222 4.0 7.0 0.00 0.00 0.00 65 1011.6
20260903121126 78 188 2.0 7.0 0.00 0.00 0.00 65 1011.7
20260903120625 78 177 3.0 5.0 0.00 0.00 0.00 65 1011.5
20260903120119 78 143 1.0 10.0 0.00 0.00 0.00 65 1011.6
20260903115617 78 159 3.0 6.0 0.00 0.00 0.00 64 1011.9
20260903115113 78 159 3.0 6.0 0.00 0.00 0.00 64 1011.9
20260903114608 79 198 0.0 5.0 0.00 0.00 0.00 64 1011.4
20260903114104 79 179 1.0 5.0 0.00 0.00 0.00 64 1011.5
20260903113559 79 252 1.0 6.0 0.00 0.00 0.00 63 1011.6
20260903113055 79 162 1.0 3.0 0.00 0.00 0.00 63 1011.5
20260903112551 79 177 0.0 6.0 0.00 0.00 0.00 63 1011.5
20260903112050 79 183 4.0 9.0 0.00 0.00 0.00 62 1011.4
20260903111550 79 287 3.0 5.0 0.00 0.00 0.00 62 1011.5
20260903111046 79 154 0.0 5.0 0.00 0.00 0.00 62 1011.5
20260903110542 80 95 1.0 5.0 0.00 0.00 0.00 62 1011.7
20260903110036 80 183 2.0 5.0 0.00 0.00 0.00 61 1011.5
20260903105531 80 216 3.0 7.0 0.00 0.00 0.00 61 1011.7
20260903105026 80 232 2.0 6.0 0.00 0.00 0.00 61 1011.9
20260903104526 80 250 4.0 7.0 0.00 0.00 0.00 61 1012.0
20260903104022 80 208 3.0 7.0 0.00 0.00 0.00 60 1011.7
20260903103517 80 150 1.0 6.0 0.00 0.00 0.00 60 1011.9
20260903103014 80 152 6.0 8.0 0.00 0.00 0.00 60 1011.7
20260903102509 80 222 2.0 5.0 0.00 0.00 0.00 60 1011.7
20260903102008 81 259 5.0 6.0 0.00 0.00 0.00 59 1012.0
20260903101502 81 195 1.0 6.0 0.00 0.00 0.00 59 1012.0
20260903100958 81 198 2.0 5.0 0.00 0.00 0.00 59 1011.7
20260903100452 81 156 0.0 5.0 0.00 0.00 0.00 58 1011.9
20260903095949 81 182 4.0 7.0 0.00 0.00 0.00 58 1011.6
20260903095444 81 213 2.0 15.0 0.00 0.00 0.00 58 1011.9
20260903094939 81 208 0.0 5.0 0.00 0.00 0.00 58 1011.7
20260903094439 81 238 3.0 5.0 0.00 0.00 0.00 58 1011.9
20260903093935 81 299 4.0 9.0 0.00 0.00 0.00 58 1011.7
20260903093430 81 174 1.0 2.0 0.00 0.00 0.00 58 1012.0
20260903092925 81 151 3.0 9.0 0.00 0.00 0.00 57 1012.0
20260903092420 81 122 1.0 3.0 0.00 0.00 0.00 57 1012.0
20260903091918 81 261 2.0 9.0 0.00 0.00 0.00 57 1012.1
20260903091417 81 181 2.0 6.0 0.00 0.00 0.00 57 1012.1
20260903090912 81 31 1.0 5.0 0.00 0.00 0.00 57 1012.0
20260903090408 81 159 2.0 5.0 0.00 0.00 0.00 57 1012.0
20260903085906 81 182 1.0 8.0 0.00 0.00 0.00 57 1012.0
20260903085404 81 203 7.0 9.0 0.00 0.00 0.00 57 1012.0
20260903084859 82 184 5.0 8.0 0.00 0.00 0.00 57 1011.6
20260903084357 82 156 6.0 9.0 0.00 0.00 0.00 57 1011.7
20260903083853 82 230 3.0 11.0 0.00 0.00 0.00 56 1011.9
20260903083349 82 216 3.0 7.0 0.00 0.00 0.00 56 1011.7
20260903082847 82 189 3.0 7.0 0.00 0.00 0.00 56 1012.0
20260903082343 82 180 5.0 9.0 0.00 0.00 0.00 56 1011.7
20260903081838 82 177 3.0 5.0 0.00 0.00 0.00 56 1011.5
20260903081333 82 249 3.0 7.0 0.00 0.00 0.00 55 1011.9
20260903080830 82 225 2.0 5.0 0.00 0.00 0.00 55 1011.5
20260903080327 82 164 2.0 9.0 0.00 0.00 0.00 55 1011.6
20260903075826 82 194 4.0 7.0 0.00 0.00 0.00 55 1011.7
20260903075321 82 191 6.0 8.0 0.00 0.00 0.00 54 1011.7
20260903074821 83 246 3.0 7.0 0.00 0.00 0.00 54 1011.6
20260903074315 83 213 1.0 10.0 0.00 0.00 0.00 54 1012.0
20260903073811 83 191 3.0 7.0 0.00 0.00 0.00 54 1012.0
20260903073306 83 188 2.0 8.0 0.00 0.00 0.00 54 1011.7
20260903072802 83 156 2.0 7.0 0.00 0.00 0.00 54 1012.0
20260903072258 83 309 2.0 8.0 0.00 0.00 0.00 54 1011.5
20260903071755 83 190 4.0 7.0 0.00 0.00 0.00 54 1011.9
20260903071250 83 172 2.0 9.0 0.00 0.00 0.00 54 1011.7
20260903070744 83 193 2.0 6.0 0.00 0.00 0.00 54 1011.9
20260903070240 83 216 4.0 6.0 0.00 0.00 0.00 54 1011.7
20260903065735 83 177 1.0 7.0 0.00 0.00 0.00 54 1012.0
20260903065234 83 202 1.0 13.0 0.00 0.00 0.00 54 1011.7
20260903064733 83 148 0.0 6.0 0.00 0.00 0.00 54 1011.9
20260903064228 83 244 3.0 7.0 0.00 0.00 0.00 53 1011.9
20260903063725 83 183 2.0 5.0 0.00 0.00 0.00 53 1011.7
20260903063219 84 199 1.0 8.0 0.00 0.00 0.00 53 1011.7
20260903062716 84 66 1.0 7.0 0.00 0.00 0.00 53 1011.6
20260903062215 84 246 2.0 8.0 0.00 0.00 0.00 53 1011.6
20260903061712 84 200 4.0 7.0 0.00 0.00 0.00 52 1011.7
20260903061210 84 160 1.0 10.0 0.00 0.00 0.00 52 1011.6
20260903060706 84 195 3.0 9.0 0.00 0.00 0.00 52 1011.6
20260903060201 84 238 3.0 7.0 0.00 0.00 0.00 52 1011.6
20260903055658 84 176 4.0 6.0 0.00 0.00 0.00 52 1011.6
20260903055156 84 207 3.0 8.0 0.00 0.00 0.00 51 1011.6
20260903054651 84 171 4.0 6.0 0.00 0.00 0.00 51 1011.5
20260903054147 84 199 1.0 8.0 0.00 0.00 0.00 50 1011.4
20260903053643 84 194 2.0 6.0 0.00 0.00 0.00 50 1011.5
20260903053138 85 175 3.0 8.0 0.00 0.00 0.00 50 1011.5
20260903052634 85 236 3.0 6.0 0.00 0.00 0.00 50 1011.4
20260903052130 85 171 3.0 7.0 0.00 0.00 0.00 49 1011.6
20260903051624 85 164 3.0 6.0 0.00 0.00 0.00 49 1011.5
20260903051120 85 186 5.0 9.0 0.00 0.00 0.00 49 1011.7
20260903050620 85 172 4.0 6.0 0.00 0.00 0.00 48 1011.6
20260903050115 85 67 2.0 5.0 0.00 0.00 0.00 48 1011.6
20260903045614 85 124 1.0 9.0 0.00 0.00 0.00 48 1011.5
20260903045111 85 113 3.0 7.0 0.00 0.00 0.00 47 1011.2
20260903044606 85 152 4.0 8.0 0.00 0.00 0.00 47 1011.4
20260903044102 86 166 2.0 6.0 0.00 0.00 0.00 47 1011.5
20260903043558 86 213 2.0 11.0 0.00 0.00 0.00 47 1011.5
20260903043057 86 95 5.0 8.0 0.00 0.00 0.00 46 1011.4
20260903042552 86 96 1.0 9.0 0.00 0.00 0.00 47 1011.4
20260903042047 86 70 2.0 6.0 0.00 0.00 0.00 46 1011.5
20260903041544 86 203 4.0 9.0 0.00 0.00 0.00 46 1011.5
20260903041039 86 175 5.0 9.0 0.00 0.00 0.00 46 1011.5
20260903040537 86 220 3.0 6.0 0.00 0.00 0.00 45 1011.5
20260903040035 87 117 5.0 7.0 0.00 0.00 0.00 45 1011.3
20260903035529 87 248 3.0 5.0 0.00 0.00 0.00 45 1011.4
20260903035026 87 108 2.0 9.0 0.00 0.00 0.00 45 1011.4
20260903034525 87 127 2.0 5.0 0.00 0.00 0.00 45 1011.4
20260903034020 87 226 6.0 11.0 0.00 0.00 0.00 44 1011.1
20260903033515 87 194 6.0 10.0 0.00 0.00 0.00 44 1011.2
20260903033011 87 179 3.0 14.0 0.00 0.00 0.00 44 1011.3
20260903032506 88 77 4.0 8.0 0.00 0.00 0.00 44 1011.3
20260903032001 87 175 5.0 8.0 0.00 0.00 0.00 44 1011.2
20260903031501 87 250 7.0 9.0 0.00 0.00 0.00 44 1011.2
20260903030956 87 44 2.0 6.0 0.00 0.00 0.00 44 1011.2
20260903030452 87 119 3.0 3.0 0.00 0.00 0.00 44 1011.2
20260903025947 88 100 1.0 7.0 0.00 0.00 0.00 44 1011.0
20260903025443 88 124 4.0 6.0 0.00 0.00 0.00 43 1011.0
20260903024939 88 163 2.0 9.0 0.00 0.00 0.00 43 1011.0
20260903024437 88 196 4.0 7.0 0.00 0.00 0.00 43 1011.1
20260903023932 88 180 2.0 3.0 0.00 0.00 0.00 43 1010.8
20260903023428 88 90 3.0 7.0 0.00 0.00 0.00 43 1010.9
20260903022923 88 143 4.0 8.0 0.00 0.00 0.00 42 1010.8
20260903022422 88 138 2.0 5.0 0.00 0.00 0.00 42 1010.7
20260903021921 88 213 2.0 8.0 0.00 0.00 0.00 42 1010.7
20260903021417 89 108 2.0 3.0 0.00 0.00 0.00 41 1010.4
20260903020911 89 104 2.0 3.0 0.00 0.00 0.00 41 1010.7
20260903020407 89 163 3.0 5.0 0.00 0.00 0.00 40 1010.6
20260903015901 90 196 2.0 5.0 0.00 0.00 0.00 40 1010.5
20260903015357 90 148 4.0 8.0 0.00 0.00 0.00 39 1010.7
20260903014852 90 46 2.0 3.0 0.00 0.00 0.00 39 1010.4
20260903014351 90 108 1.0 5.0 0.00 0.00 0.00 39 1010.2
20260903013846 91 159 2.0 3.0 0.00 0.00 0.00 38 1010.0
20260903013346 91 134 0.0 7.0 0.00 0.00 0.00 38 1009.9
20260903012845 92 142 1.0 8.0 0.00 0.00 0.00 37 1009.8
20260903012339 92 146 4.0 7.0 0.00 0.00 0.00 36 1010.0
20260903011839 92 166 1.0 5.0 0.00 0.00 0.00 36 1009.9
20260903011338 92 150 2.0 3.0 0.00 0.00 0.00 36 1009.9
20260903010834 93 127 1.0 7.0 0.00 0.00 0.00 36 1009.9
20260903010329 93 148 2.0 3.0 0.00 0.00 0.00 36 1010.0
20260903005827 93 130 0.0 5.0 0.00 0.00 0.00 35 1009.8
20260903005323 94 162 0.0 5.0 0.00 0.00 0.00 35 1009.6
20260903004819 95 110 2.0 3.0 0.00 0.00 0.00 34 1009.9
20260903004314 95 197 2.0 3.0 0.00 0.00 0.00 34 1009.9
20260903003809 95 172 4.0 9.0 0.00 0.00 0.00 33 1009.6
20260903003304 96 161 2.0 7.0 0.00 0.00 0.00 33 1009.8
20260903002759 96 143 1.0 3.0 0.00 0.00 0.00 33 1009.9
20260903002258 97 117 4.0 6.0 0.00 0.00 0.00 32 1010.0
20260903001753 97 206 3.0 8.0 0.00 0.00 0.00 32 1009.8
20260903001248 98 136 3.0 8.0 0.00 0.00 0.00 31 1009.8
20260903000743 98 173 2.0 8.0 0.00 0.00 0.00 31 1009.8
20260903000243 98 166 4.0 5.0 0.00 0.00 0.00 30 1009.9
20260902235741 99 207 2.0 7.0 0.00 0.00 0.00 30 1009.8
20260902235237 100 181 2.0 8.0 0.00 0.00 0.00 29 1009.7
20260902234736 100 204 3.0 7.0 0.00 0.00 0.00 29 1009.9
20260902234236 100 105 4.0 10.0 0.00 0.00 0.00 29 1009.9
20260902233736 100 181 3.0 5.0 0.00 0.00 0.00 29 1009.8
20260902233230 101 190 3.0 9.0 0.00 0.00 0.00 28 1009.9
20260902232728 101 103 3.0 5.0 0.00 0.00 0.00 28 1009.8
20260902232223 101 169 2.0 5.0 0.00 0.00 0.00 28 1009.8
20260902231718 101 158 6.0 11.0 0.00 0.00 0.00 28 1009.9
20260902231218 101 204 7.0 10.0 0.00 0.00 0.00 28 1009.8
20260902230713 101 218 5.0 11.0 0.00 0.00 0.00 28 1009.8
20260902230212 101 133 1.0 9.0 0.00 0.00 0.00 28 1010.0
20260902225707 101 206 2.0 6.0 0.00 0.00 0.00 27 1010.3
20260902225207 102 197 8.0 10.0 0.00 0.00 0.00 27 1009.8
20260902224705 102 190 4.0 9.0 0.00 0.00 0.00 27 1009.9
20260902224201 103 191 4.0 7.0 0.00 0.00 0.00 28 1009.9
20260902223657 103 282 2.0 8.0 0.00 0.00 0.00 27 1010.0
20260902223156 104 134 6.0 9.0 0.00 0.00 0.00 27 1009.9
20260902222656 103 91 3.0 6.0 0.00 0.00 0.00 27 1009.9
20260902222155 103 150 2.0 9.0 0.00 0.00 0.00 27 1010.3
20260902221649 103 168 3.0 7.0 0.00 0.00 0.00 27 1010.4
20260902221149 103 182 4.0 6.0 0.00 0.00 0.00 27 1010.3
20260902220645 103 185 3.0 10.0 0.00 0.00 0.00 27 1010.0
20260902220139 103 225 3.0 7.0 0.00 0.00 0.00 27 1010.2
20260902215635 103 231 0.0 6.0 0.00 0.00 0.00 27 1010.2
20260902215130 104 171 4.0 10.0 0.00 0.00 0.00 26 1010.2
20260902214625 104 119 3.0 11.0 0.00 0.00 0.00 27 1010.5
20260902214124 103 141 3.0 8.0 0.00 0.00 0.00 27 1010.4
20260902213620 103 124 3.0 9.0 0.00 0.00 0.00 27 1010.6
20260902213119 103 230 3.0 8.0 0.00 0.00 0.00 27 1010.4
20260902212615 104 214 4.0 11.0 0.00 0.00 0.00 27 1010.7
20260902212111 104 163 3.0 11.0 0.00 0.00 0.00 27 1010.7
20260902211607 104 186 2.0 6.0 0.00 0.00 0.00 26 1010.6
20260902211102 104 293 6.0 8.0 0.00 0.00 0.00 27 1010.6
20260902210601 104 220 0.0 7.0 0.00 0.00 0.00 27 1010.8
20260902210056 104 249 3.0 7.0 0.00 0.00 0.00 27 1010.8
20260902205555 104 193 7.0 11.0 0.00 0.00 0.00 26 1011.1
20260902205050 103 123 3.0 6.0 0.00 0.00 0.00 27 1011.0
20260902204545 103 263 3.0 10.0 0.00 0.00 0.00 27 1011.3
20260902204040 103 249 4.0 13.0 0.00 0.00 0.00 27 1011.2
20260902203535 103 226 6.0 11.0 0.00 0.00 0.00 27 1011.2
20260902203034 102 116 1.0 5.0 0.00 0.00 0.00 27 1011.3
20260902202530 103 188 7.0 13.0 0.00 0.00 0.00 27 1011.5
20260902202026 103 204 2.0 7.0 0.00 0.00 0.00 27 1011.6
20260902201521 103 141 6.0 13.0 0.00 0.00 0.00 27 1011.4
20260902201015 102 243 7.0 11.0 0.00 0.00 0.00 28 1011.6
20260902200511 102 71 4.0 10.0 0.00 0.00 0.00 28 1011.9
20260902200007 102 253 4.0 11.0 0.00 0.00 0.00 27 1012.0
20260902195502 102 214 4.0 7.0 0.00 0.00 0.00 27 1012.0
20260902195001 103 254 3.0 9.0 0.00 0.00 0.00 28 1011.9
20260902194455 102 208 7.0 10.0 0.00 0.00 0.00 28 1012.3
20260902193950 102 192 5.0 13.0 0.00 0.00 0.00 29 1012.0
20260902193446 103 132 2.0 3.0 0.00 0.00 0.00 29 1012.1
20260902192945 102 163 2.0 7.0 0.00 0.00 0.00 30 1012.3
20260902192444 102 102 2.0 7.0 0.00 0.00 0.00 30 1012.3
20260902191943 101 284 4.0 9.0 0.00 0.00 0.00 30 1012.6
20260902191438 102 296 5.0 9.0 0.00 0.00 0.00 31 1012.6
20260902190934 101 195 5.0 7.0 0.00 0.00 0.00 32 1012.6
20260902190429 100 218 3.0 6.0 0.00 0.00 0.00 32 1012.8
20260902185924 102 190 4.0 9.0 0.00 0.00 0.00 32 1012.6
20260902185421 101 176 2.0 6.0 0.00 0.00 0.00 32 1012.8
20260902184915 100 217 3.0 8.0 0.00 0.00 0.00 33 1013.1
20260902184410 100 182 2.0 7.0 0.00 0.00 0.00 34 1012.9
20260902183906 100 165 3.0 9.0 0.00 0.00 0.00 33 1013.3
20260902183402 100 315 3.0 5.0 0.00 0.00 0.00 34 1013.3
20260902182858 100 238 4.0 8.0 0.00 0.00 0.00 34 1013.3
20260902182354 99 121 2.0 13.0 0.00 0.00 0.00 34 1013.2
20260902181850 101 248 7.0 10.0 0.00 0.00 0.00 34 1013.2
20260902181345 99 205 5.0 6.0 0.00 0.00 0.00 35 1013.3
20260902180839 99 305 3.0 9.0 0.00 0.00 0.00 35 1013.5
20260902180335 98 196 5.0 9.0 0.00 0.00 0.00 36 1013.5
20260902175830 98 239 3.0 8.0 0.00 0.00 0.00 35 1013.5
20260902175325 99 178 5.0 8.0 0.00 0.00 0.00 35 1013.5
20260902174821 97 183 3.0 7.0 0.00 0.00 0.00 36 1013.7
20260902174317 97 263 5.0 9.0 0.00 0.00 0.00 37 1013.9
20260902173813 97 206 4.0 7.0 0.00 0.00 0.00 37 1013.7
20260902173307 96 200 5.0 9.0 0.00 0.00 0.00 38 1014.0
20260902172806 96 214 3.0 9.0 0.00 0.00 0.00 37 1013.8
20260902172301 97 175 5.0 9.0 0.00 0.00 0.00 38 1013.7
20260902171756 97 249 3.0 9.0 0.00 0.00 0.00 37 1014.1
20260902171251 97 200 4.0 9.0 0.00 0.00 0.00 37 1014.0
20260902170748 95 11 3.0 5.0 0.00 0.00 0.00 38 1014.0
20260902170243 96 126 5.0 10.0 0.00 0.00 0.00 38 1014.1
20260902165738 95 201 2.0 5.0 0.00 0.00 0.00 39 1014.1
20260902165238 95 60 6.0 9.0 0.00 0.00 0.00 38 1014.2
20260902164732 95 152 0.0 9.0 0.00 0.00 0.00 39 1014.4
20260902164227 95 110 4.0 6.0 0.00 0.00 0.00 39 1014.3
20260902163722 95 186 3.0 10.0 0.00 0.00 0.00 39 1014.4
20260902163222 94 120 3.0 5.0 0.00 0.00 0.00 40 1014.6
20260902162720 94 261 2.0 9.0 0.00 0.00 0.00 40 1014.6
20260902162215 94 262 5.0 8.0 0.00 0.00 0.00 40 1014.8
20260902161710 93 186 3.0 13.0 0.00 0.00 0.00 40 1014.6
20260902161206 93 100 4.0 7.0 0.00 0.00 0.00 42 1014.4
20260902160703 93 100 4.0 7.0 0.00 0.00 0.00 42 1014.4
20260902160156 93 100 4.0 7.0 0.00 0.00 0.00 42 1014.4
20260902155655 92 279 2.0 6.0 0.00 0.00 0.00 43 1014.5
20260902155153 91 301 5.0 8.0 0.00 0.00 0.00 43 1014.4
20260902154649 91 249 3.0 9.0 0.00 0.00 0.00 44 1014.4
20260902154149 91 150 2.0 6.0 0.00 0.00 0.00 44 1014.5
20260902153649 90 82 0.0 6.0 0.00 0.00 0.00 45 1014.6
20260902153143 90 193 2.0 9.0 0.00 0.00 0.00 46 1014.4
20260902152640 90 123 6.0 10.0 0.00 0.00 0.00 46 1014.5
20260902152135 89 74 4.0 7.0 0.00 0.00 0.00 47 1014.4
20260902151630 89 222 4.0 9.0 0.00 0.00 0.00 47 1014.4
20260902151125 89 172 2.0 9.0 0.00 0.00 0.00 48 1014.4
20260902150621 88 208 3.0 7.0 0.00 0.00 0.00 48 1014.5
20260902150116 87 138 1.0 11.0 0.00 0.00 0.00 50 1014.5
20260902145616 87 249 2.0 5.0 0.00 0.00 0.00 50 1014.4
20260902145115 87 248 8.0 9.0 0.00 0.00 0.00 50 1014.5
20260902144613 86 160 1.0 7.0 0.00 0.00 0.00 51 1014.4
20260902144112 86 280 1.0 8.0 0.00 0.00 0.00 52 1014.3
20260902143607 86 215 5.0 8.0 0.00 0.00 0.00 52 1014.3
20260902143103 85 212 2.0 7.0 0.00 0.00 0.00 52 1014.4
20260902142558 84 218 0.0 7.0 0.00 0.00 0.00 53 1014.3
20260902142054 85 166 3.0 7.0 0.00 0.00 0.00 54 1014.5
20260902141548 84 199 2.0 7.0 0.00 0.00 0.00 55 1014.6
20260902141043 83 179 1.0 3.0 0.00 0.00 0.00 55 1014.4
20260902140544 83 164 1.0 2.0 0.00 0.00 0.00 55 1014.6
20260902140039 82 166 1.0 2.0 0.00 0.00 0.00 56 1014.6